RH
70 71 68 56 58 38 47 55 58 54 55 57 64 58 49 46 46 48 47 39 37 40 35 40 44 44 46 48 51 52 53 42 61 61 60 63 64 68 65 68 71 76 80 74
55 69 53 45 40 40 48 51 46 58 60 62 58 54 48 46 46 47 47 44 37 34 35 36 37 38 42 42 47 52 46 49 61 61 55 61 64 62 66 66 70 76 75 80
53 42 34 38 43 48 52 54 56 52 57 53 62 61 60 44 42 44 44 41 38 38 37 38 39 39 39 41 43 50 46 53 57 56 58 62 66 72 69 64 65 70 72 80
41 31 31 31 39 43 52 42 43 51 68 63 61 73 67 60 52 42 40 41 39 39 36 38 38 38 41 42 44 46 48 46 51 52 56 62 68 69 66 66 60 64 70 74
32 28 29 35 33 33 36 40 47 55 65 64 60 69 57 66 64 54 40 38 38 37 36 36 37 36 37 40 42 45 47 39 38 46 54 59 66 64 66 69 68 67 72 69
30 21 29 27 28 32 39 47 51 64 74 74 66 69 61 61 55 50 42 36 37 38 35 36 37 36 36 39 44 46 45 41 40 46 48 58 65 69 72 63 64 66 66 66
26 22 26 23 39 39 41 47 65 66 72 65 74 73 62 46 39 43 46 38 35 35 36 35 36 36 36 40 42 41 43 46 44 45 48 47 52 64 67 64 55 64 63 64
28 28 29 24 36 43 48 37 44 32 65 63 69 58 45 44 55 49 41 39 36 36 36 35 36 36 38 41 41 42 42 44 48 48 45 47 50 54 62 62 64 67 67 65
29 25 16 18 22 24 36 32 39 67 76 68 66 56 47 46 63 61 54 51 45 42 38 36 34 39 41 42 42 42 42 42 45 46 48 50 52 56 56 57 57 56 57 64
20 22 18 16 15 21 24 40 39 53 40 43 61 66 64 43 52 68 65 53 56 52 45 40 35 38 38 41 40 39 40 40 40 45 46 48 48 50 52 57 54 55 58 63
19 20 18 18 18 22 32 33 39 48 52 56 54 63 65 44 44 68 66 58 48 48 38 38 35 33 37 40 38 36 37 38 40 42 45 46 42 44 47 47 47 48 52 55
20 25 24 20 15 20 32 22 25 31 33 68 50 55 41 46 43 54 55 58 54 43 44 43 41 42 45 40 40 38 35 34 36 40 45 44 41 40 42 47 45 47 46 47
27 26 26 21 16 21 24 23 21 40 63 68 48 48 50 52 50 44 49 50 53 44 40 45 45 45 47 45 42 41 36 35 36 38 39 44 43 40 41 48 52 51 50 50
17 28 20 22 18 24 23 23 24 38 60 64 56 34 44 48 59 54 48 42 39 35 36 37 44 56 61 68 60 39 37 36 36 38 39 42 45 46 50 54 60 66 70 74
20 19 20 21 23 23 24 23 24 27 34 41 37 50 44 60 60 46 40 40 40 40 42 47 59 59 70 76 69 61 49 43 39 44 45 44 47 53 59 64 68 71 73 73
26 26 27 26 28 26 25 25 31 29 42 48 50 44 57 61 58 54 44 42 42 43 51 71 70 63 58 62 70 70 60 53 53 50 54 57 58 62 66 67 69 71 66 66
31 34 33 27 34 31 27 28 32 40 44 53 44 49 65 63 65 69 63 54 58 67 70 68 70 75 73 65 59 70 76 73 72 69 72 71 66 64 66 66 68 69 70 72
40 50 45 31 29 28 29 40 40 49 49 52 53 67 60 56 55 62 61 61 67 68 73 76 62 60 61 62 84 85 86 82 79 78 77 72 69 67 72 72 67 61 60 59
33 46 54 37 44 36 29 34 38 34 34 50 54 55 50 46 48 53 54 51 44 52 45 44 44 55 58 57 59 71 81 83 75 80 75 76 71 66 64 49 46 47 53 61
33 35 34 58 36 41 37 39 41 38 34 48 49 55 51 48 66 62 53 48 50 44 39 35 50 56 59 60 53 48 69 73 64 58 52 51 47 44 43 52 60 66 65 63
35 41 35 57 41 38 33 37 41 23 26 42 44 47 51 56 48 43 50 49 43 38 41 42 45 48 56 54 48 37 41 42 44 46 49 60 44 50 58 58 58 56 60 62
34 40 38 50 36 35 33 41 36 28 39 31 39 38 44 45 43 43 46 46 41 40 43 44 45 48 52 54 38 32 39 43 43 45 52 48 54 52 52 54 53 54 56 56
33 33 38 34 37 28 32 31 34 29 34 42 41 41 41 45 49 46 44 41 41 42 43 44 44 47 53 58 58 34 34 38 43 47 44 49 55 51 60 62 62 63 61 55
30 36 40 36 32 41 29 31 24 22 28 38 37 36 36 44 48 45 43 44 41 42 43 44 45 47 52 61 61 52 37 40 43 45 46 49 51 57 61 63 64 64 66 66
38 39 47 44 39 41 39 26 20 27 32 40 41 38 40 42 47 47 46 43 40 39 41 45 45 47 52 59 54 60 57 52 53 52 58 61 60 60 59 61 62 65 66 69
38 40 44 48 33 33 33 27 28 28 30 30 32 38 35 38 38 47 46 40 39 39 41 46 46 49 52 57 62 65 65 70 63 56 64 67 67 61 59 58 61 64 59 60
Wind_Speed
4 2 5 9 6 7 9 9 5 2 1 2 2 4 17 23 20 18 23 28 29 30 28 24 18 16 16 20 22 21 20 21 19 16 16 14 12 8 7 5 4 4 3 3
3 6 10 5 6 6 7 4 3 4 2 4 1 9 15 21 26 26 26 27 30 31 29 29 27 26 25 23 22 22 21 23 22 17 14 15 11 9 11 9 6 5 5 4
6 6 4 8 9 7 5 6 3 0 4 5 5 4 6 15 21 20 23 29 30 31 30 27 25 23 25 27 28 26 23 22 18 16 14 14 12 13 10 7 5 5 7 6
7 4 3 5 6 10 5 16 9 4 2 3 2 4 6 8 16 21 26 30 33 32 35 31 26 25 24 24 23 26 23 20 19 17 18 17 15 15 14 12 9 7 8 8
7 7 4 5 7 8 7 11 12 4 2 2 5 1 5 4 9 13 27 32 38 38 32 34 28 27 27 25 24 23 20 18 18 19 20 18 18 13 10 9 10 6 11 11
7 5 5 5 2 4 14 11 8 6 5 4 4 2 5 4 8 3 15 30 34 39 38 29 31 26 29 30 29 26 21 19 21 20 18 21 20 16 17 15 13 10 8 13
5 4 4 4 9 5 8 7 3 2 2 5 5 2 8 6 6 9 18 33 35 37 34 33 29 30 32 32 30 26 24 23 22 21 21 20 21 20 18 16 13 12 10 10
3 6 6 5 9 10 7 6 4 4 4 4 5 5 5 5 14 23 25 32 36 35 30 34 29 30 31 33 34 31 28 25 22 21 21 22 22 22 21 18 17 16 13 11
5 5 3 3 6 7 6 5 1 6 0 1 3 6 8 3 6 6 10 23 27 27 27 37 35 24 20 21 30 35 33 29 26 23 21 21 22 22 21 20 20 18 16 15
5 1 4 5 3 7 6 7 1 3 2 4 4 5 6 4 5 4 5 14 18 18 24 29 31 29 17 14 19 25 31 36 30 26 23 21 20 20 20 21 22 22 19 18
5 4 6 1 3 6 2 3 5 5 3 5 2 6 7 8 6 7 8 14 21 15 21 28 31 18 14 11 18 23 25 28 32 31 25 23 20 20 20 20 20 19 20 18
8 5 5 10 3 3 4 8 6 5 5 3 1 6 1 5 5 10 11 9 14 23 20 21 15 13 15 12 14 20 24 25 21 27 27 25 21 20 20 20 18 18 20 20
9 3 2 10 6 3 2 6 4 6 4 5 5 6 3 4 4 14 14 8 11 16 21 24 17 11 9 11 14 11 22 24 24 26 27 27 22 21 20 17 17 18 21 23
13 5 8 8 6 4 2 5 5 6 4 5 6 1 4 7 8 12 13 9 10 13 17 16 10 5 5 5 6 14 17 22 23 24 29 29 27 22 18 16 16 17 19 23
4 7 6 4 5 4 6 5 8 7 7 7 8 8 7 8 9 18 18 13 10 11 11 6 4 4 3 2 1 3 9 15 21 26 28 29 29 23 19 18 19 20 22 27
3 2 2 4 4 1 5 7 8 5 5 3 7 3 3 3 14 14 18 18 14 10 9 9 6 2 0 3 2 3 5 7 8 13 19 25 27 20 17 19 17 19 19 21
3 5 3 3 3 5 4 4 4 2 4 5 6 7 8 5 12 19 22 21 19 18 16 12 8 4 1 0 1 2 5 6 5 4 6 6 9 11 12 14 16 16 10 7
5 4 2 3 3 2 6 3 4 8 5 3 5 5 7 13 17 25 26 27 25 22 17 13 10 8 7 7 8 8 7 5 3 5 4 4 6 7 4 3 3 3 4 6
2 5 3 4 1 5 3 6 6 6 3 6 6 4 14 13 15 11 24 27 23 19 13 11 9 11 11 10 9 8 9 8 8 9 8 7 6 6 7 6 6 7 8 8
1 5 4 2 4 6 7 4 4 2 2 10 16 13 14 17 7 5 27 27 25 21 16 15 12 11 8 9 9 8 9 7 6 7 9 10 9 8 9 10 10 10 8 9
1 3 5 3 3 6 6 5 5 4 6 12 25 26 24 8 11 27 28 28 23 18 16 14 11 9 7 7 7 10 11 11 10 10 10 10 9 12 13 11 10 10 10 10
8 6 4 2 3 4 12 6 5 4 2 13 25 33 32 16 22 29 29 28 23 20 19 15 12 9 7 7 6 9 10 11 11 11 11 10 13 14 13 12 11 11 11 9
2 7 6 8 8 4 41 1 11 6 11 21 30 28 24 21 28 31 32 29 20 20 21 16 12 11 10 8 6 6 8 9 10 9 9 11 11 11 10 9 8 8 9 8
3 4 3 3 1 6 32 8 20 7 6 17 22 24 26 28 31 34 32 29 26 24 23 18 16 13 12 10 6 4 4 6 7 9 10 10 10 8 7 5 5 6 7 7
4 4 5 1 3 12 8 21 16 13 15 17 18 22 26 29 30 36 30 28 28 25 24 22 20 14 11 10 6 5 4 3 5 8 10 8 6 4 2 1 2 5 7 7
3 6 4 5 13 7 17 22 21 18 19 17 16 19 24 29 32 32 29 30 28 25 24 25 21 15 11 9 5 4 1 3 4 8 10 6 6 4 4 4 3 5 7 8
Wind_Direction
128 82 223 213 185 166 114 132 208 231 14 242 145 213 184 197 206 208 210 204 211 218 218 222 218 219 228 222 224 229 224 204 202 200 198 206 214 232 247 250 258 265 252 284
68 238 237 197 175 150 133 157 243 164 202 160 167 184 184 191 209 207 209 216 215 223 232 227 223 227 230 234 234 225 222 207 212 217 208 212 218 244 267 244 232 246 242 262
170 235 143 155 176 176 205 209 176 67 101 64 40 293 211 208 219 220 222 220 226 228 231 233 236 231 227 231 231 223 222 213 216 208 199 208 230 242 250 242 258 263 241 249
239 286 179 185 191 171 218 217 171 115 43 185 175 248 219 196 211 218 221 222 230 234 236 238 236 231 223 227 220 223 223 223 222 221 217 224 233 249 252 265 269 260 252 253
250 313 306 228 219 151 247 176 155 95 335 357 342 107 263 154 218 218 213 213 226 232 236 234 232 227 229 228 224 222 227 226 227 229 226 230 236 240 253 255 263 262 247 247
252 275 166 208 89 123 112 90 51 46 39 329 251 196 290 191 223 224 212 212 214 226 231 235 234 229 226 226 222 219 227 234 226 224 229 230 237 248 252 254 259 258 257 239
333 247 260 169 81 15 77 79 81 336 188 233 212 82 241 257 236 220 210 211 212 222 218 227 232 225 223 225 224 221 227 231 226 226 230 235 240 245 253 263 256 261 259 251
154 325 173 197 168 180 185 162 166 202 195 249 206 235 245 238 301 257 226 201 204 214 213 213 222 226 230 230 229 226 228 234 227 229 236 239 243 248 253 258 260 264 265 273
147 274 291 221 191 146 191 205 159 108 117 311 268 290 295 299 346 354 158 168 186 195 210 201 210 213 223 236 244 237 235 238 235 237 243 244 244 247 252 260 260 264 263 264
210 321 226 278 94 61 172 160 136 11 123 294 286 292 238 265 271 280 196 185 164 162 183 189 200 206 217 254 259 255 243 245 243 241 244 250 252 252 254 258 261 263 269 269
139 121 258 0 181 171 88 282 48 111 133 177 223 260 216 210 209 230 218 205 188 165 177 179 193 207 234 280 259 251 246 249 243 245 245 248 247 252 255 258 264 268 270 269
194 156 240 238 233 101 196 187 149 126 236 246 173 277 290 162 213 238 236 196 202 190 186 184 196 204 214 290 264 242 243 243 240 247 248 244 250 252 258 259 265 268 270 270
176 225 303 333 352 70 184 219 135 105 97 200 152 259 22 142 240 228 222 166 183 184 207 216 225 259 279 289 231 245 240 245 250 254 253 241 244 250 255 265 276 275 275 277
139 130 165 200 211 144 166 255 179 149 139 177 228 296 218 191 183 187 186 153 170 167 192 214 252 262 276 288 247 243 243 251 256 255 249 240 241 248 255 265 276 285 287 284
119 174 172 179 138 150 210 245 238 175 188 166 225 176 221 170 169 177 170 156 176 182 190 214 195 189 264 303 288 263 246 246 261 256 246 247 248 253 258 265 274 281 283 285
347 172 171 114 27 202 211 225 275 215 167 68 109 121 166 130 147 161 171 173 181 188 167 153 165 179 345 349 319 234 253 261 269 244 239 245 249 252 260 270 282 280 284 295
65 120 86 257 349 279 298 299 284 45 102 140 144 204 146 133 152 164 161 157 157 157 157 157 149 142 163 267 235 126 175 175 176 181 184 216 229 240 252 270 276 288 312 337
121 95 95 193 4 215 248 310 98 116 78 6 64 97 127 160 169 167 165 160 158 159 152 150 138 132 120 115 126 120 114 122 169 205 220 237 246 257 254 290 304 338 23 24
259 128 77 122 114 300 309 259 181 174 223 168 125 135 129 146 151 159 175 171 161 152 136 126 125 125 115 102 100 111 110 102 96 96 94 93 90 95 99 92 78 69 71 62
47 70 122 136 143 197 234 261 285 207 317 191 149 156 157 157 160 202 180 173 161 150 136 139 135 138 123 106 87 106 118 112 98 96 99 98 95 95 97 92 85 86 62 48
96 27 142 157 157 283 237 195 231 120 238 154 162 163 166 186 189 175 176 169 161 144 147 141 138 134 126 102 87 98 101 105 102 102 104 99 90 103 99 92 84 71 65 60
165 146 186 122 75 262 155 134 205 198 77 192 178 177 185 178 157 166 170 167 160 155 167 162 157 152 135 117 103 102 110 111 109 109 110 107 112 104 91 85 82 73 62 48
185 177 179 166 205 224 173 161 159 129 180 178 183 178 175 156 160 165 168 164 165 170 178 176 172 166 166 136 102 102 118 120 116 111 114 122 123 112 102 90 75 57 45 16
290 134 131 111 266 207 190 192 198 228 210 172 182 172 174 166 165 169 173 169 176 182 188 188 184 176 175 167 135 109 140 139 132 130 130 126 133 124 104 83 63 29 10 1
208 135 148 282 43 93 179 209 204 198 176 161 164 167 167 170 167 172 171 176 180 188 191 195 191 183 181 176 153 139 142 159 163 155 162 148 148 162 158 48 348 350 357 334
193 172 139 208 199 168 181 177 175 177 183 183 181 182 193 193 183 177 176 177 182 189 194 193 190 183 174 163 156 164 168 155 187 185 174 193 218 224 228 252 314 354 355 348